This demonstration page uses our WeatherBlox Daily Observations layout. Learn more.

Left ArrowRight Arrow

34.02893, -84.19858

Hourly Observations for February 22, 2020

Temp ( °F °C ) Dew Point ( °F °C ) Humidity (%) Winds ( mph kmh ) Pressure ( in mb ) Visibility ( mi km ) Precip ( " mm )
12:53 am 00:53 Clear 29 -1.7 26 -3.3 89 89 Calm 30.49 1032 10 16 0.00 0.00
1:53 am 01:53 Clear 29 -1.7 26 -3.3 89 89 Calm 30.48 1032 10 16 0.00 0.00
2:53 am 02:53 Clear 28 -2.2 26 -3.3 92 92 Calm 30.46 1031 9 14 0.00 0.00
3:53 am 03:53 Clear 28 -2.2 26 -3.3 92 92 Calm 30.46 1031 8 13 0.00 0.00
4:53 am 04:53 Clear 28 -2.2 25 -3.9 88 88 Calm 30.45 1031 8 13 0.00 0.00
5:53 am 05:53 Clear 26 -3.3 25 -3.9 96 96 Calm 30.48 1032 8 13 0.00 0.00
6:53 am 06:53 Clear 27 -2.8 24 -4.4 89 89 undefined N/A 30.50 1033 9 14 0.00 0.00
7:53 am 07:53 Sunny 27 -2.8 26 -3.3 96 96 undefined N/A 30.52 1033 8 13 0.00 0.00
8:53 am 08:53 Sunny 34 1.1 30 -1.1 85 85 Calm 30.53 1034 10 16 0.00 0.00
9:53 am 09:53 Sunny 40 4.4 29 -1.7 65 65 VRB 3 6 30.53 1034 10 16 0.00 0.00
10:53 am 10:53 Sunny 44 6.7 28 -2.2 53 53 W 6 9 30.52 1034 10 16 0.00 0.00
11:53 am 11:53 Sunny 47 8.3 27 -2.8 46 46 SSW 5 7 30.50 1033 10 16 0.00 0.00
12:53 pm 12:53 Sunny 49 9.4 26 -3.3 41 41 VRB 3 6 30.48 1032 10 16 0.00 0.00
1:53 pm 13:53 Sunny 51 10.6 26 -3.3 38 38 Calm 30.44 1031 10 16 0.00 0.00
2:53 pm 14:53 Sunny 53 11.7 27 -2.8 37 37 VRB 5 7 30.41 1030 10 16 0.00 0.00
3:53 pm 15:53 Sunny 54 12.2 25 -3.9 33 33 Calm 30.39 1029 10 16 0.00 0.00
4:53 pm 16:53 Sunny 54 12.2 25 -3.9 33 33 VRB 5 7 30.37 1028 10 16 0.00 0.00
5:53 pm 17:53 Sunny 50 10 26 -3.3 39 39 SW 3 6 30.37 1029 10 16 0.00 0.00
6:53 pm 18:53 Clear 47 8.3 28 -2.2 48 48 Calm 30.37 1029 10 16 0.00 0.00
7:53 pm 19:53 Clear 42 5.6 29 -1.7 60 60 Calm 30.38 1029 10 16 0.00 0.00
8:53 pm 20:53 Clear 40 4.4 31 -0.6 70 70 Calm 30.37 1029 10 16 0.00 0.00
9:53 pm 21:53 Clear 38 3.3 30 -1.1 73 73 Calm 30.38 1029 10 16 0.00 0.00
10:53 pm 22:53 Clear 37 2.8 30 -1.1 76 76 Calm 30.38 1029 10 16 0.00 0.00
11:53 pm 23:53 Clear 35 1.7 30 -1.1 82 82 Calm 30.36 1028 10 16 0.00 0.00

Powered by AerisWeather